HB9EYW-6 Weather Reports


Display with metric or nautical units.
time (UTC)temp
F
wind
direction
speed
MPH
gust
MPH
rain 1hr
in
rain 24hr
in
rain mn
in
humidity
%
barometer
mb
20260510091005 68 264 0.0 4.0 0.00 0.00 0.00 45
20260510090505 67 277 1.0 2.0 0.00 0.00 0.00 46
20260510090005 67 282 1.0 4.0 0.00 0.00 0.00 46
20260510085505 67 290 0.0 5.0 0.00 0.00 0.00 47
20260510085005 66 288 0.0 5.0 0.00 0.00 0.00 47
20260510084505 66 294 1.0 4.0 0.00 0.00 0.00 47
20260510084005 66 267 1.0 4.0 0.00 0.00 0.00 47
20260510083505 66 241 1.0 4.0 0.00 0.00 0.00 48
20260510083005 66 267 1.0 3.0 0.00 0.00 0.00 48
20260510082505 66 314 1.0 3.0 0.00 0.00 0.00 48
20260510082005 66 277 2.0 4.0 0.00 0.00 0.00 48
20260510081505 66 246 0.0 4.0 0.00 0.00 0.00 47
20260510081005 66 196 2.0 3.0 0.00 0.00 0.00 47
20260510080505 66 213 0.0 3.0 0.00 0.00 0.00 49
20260510080005 66 245 0.0 4.0 0.00 0.00 0.00 49
20260510075505 66 258 1.0 4.0 0.00 0.00 0.00 48
20260510075005 66 292 0.0 3.0 0.00 0.00 0.00 47
20260510074505 67 286 0.0 3.0 0.00 0.00 0.00 46
20260510074005 67 254 1.0 3.0 0.00 0.00 0.00 44
20260510073505 67 257 1.0 3.0 0.00 0.00 0.00 43
20260510073005 67 305 0.0 3.0 0.00 0.00 0.00 43
20260510072505 67 315 1.0 4.0 0.00 0.00 0.00 45
20260510072005 66 276 0.0 4.0 0.00 0.00 0.00 45
20260510071505 66 268 0.0 3.0 0.00 0.00 0.00 45
20260510071005 66 297 0.0 3.0 0.00 0.00 0.00 45
20260510070505 66 230 0.0 2.0 0.00 0.00 0.00 46
20260510070005 66 280 0.0 2.0 0.00 0.00 0.00 46
20260510065505 65 2 0.0 2.0 0.00 0.00 0.00 46
20260510065005 65 8 0.0 2.0 0.00 0.00 0.00 48
20260510064505 64 257 0.0 2.0 0.00 0.00 0.00 51
20260510064005 64 270 0.0 2.0 0.00 0.00 0.00 51
20260510063505 63 334 0.0 2.0 0.00 0.00 0.00 52
20260510063005 63 337 0.0 2.0 0.00 0.00 0.00 53
20260510062505 62 18 0.0 2.0 0.00 0.00 0.00 55
20260510062005 62 10 0.0 2.0 0.00 0.00 0.00 55
20260510061505 62 7 0.0 2.0 0.00 0.00 0.00 55
20260510061005 61 45 0.0 2.0 0.00 0.00 0.00 55
20260510060505 61 45 0.0 1.0 0.00 0.00 0.00 56
20260510060005 61 19 0.0 1.0 0.00 0.00 0.00 56
20260510055505 61 356 0.0 1.0 0.00 0.00 0.00 57
20260510055005 61 292 0.0 1.0 0.00 0.00 0.00 59
20260510054505 61 297 0.0 1.0 0.00 0.00 0.00 59
20260510054005 60 247 0.0 1.0 0.00 0.00 0.00 60
20260510053505 60 209 0.0 1.0 0.00 0.00 0.00 61
20260510053005 60 27 0.0 1.0 0.00 0.00 0.00 61
20260510052505 59 170 0.0 2.0 0.00 0.00 0.00 61
20260510052005 59 171 0.0 2.0 0.00 0.00 0.00 62
20260510051505 59 8 0.0 2.0 0.00 0.00 0.00 63
20260510051005 58 360 0.0 2.0 0.00 0.00 0.00 64
20260510050505 58 360 0.0 2.0 0.00 0.00 0.00 64
20260510050005 58 360 0.0 2.0 0.00 0.00 0.00 64
20260510045505 58 0 0.0 0.0 0.00 0.00 0.00 64
20260510045005 57 360 0.0 2.0 0.00 0.00 0.00 64
20260510044505 57 360 0.0 2.0 0.00 0.00 0.00 63
20260510044005 57 360 0.0 2.0 0.00 0.00 0.00 63
20260510043505 58 360 0.0 2.0 0.00 0.00 0.00 63
20260510043005 58 360 0.0 1.0 0.00 0.00 0.00 62
20260510042504 58 360 0.0 1.0 0.00 0.00 0.00 62
20260510042005 58 96 0.0 2.0 0.00 0.00 0.00 62
20260510041505 58 84 0.0 2.0 0.00 0.00 0.00 61
20260510041005 58 0 0.0 1.0 0.00 0.00 0.00 61
20260510040504 58 0 0.0 0.0 0.00 0.00 0.00 59
20260510040005 58 0 0.0 0.0 0.00 0.00 0.00 59
20260510035504 58 0 0.0 0.0 0.00 0.00 0.00 59
20260510035004 58 360 0.0 2.0 0.00 0.00 0.00 59
20260510034504 58 360 0.0 2.0 0.00 0.00 0.00 59
20260510034004 59 53 0.0 1.0 0.00 0.00 0.00 59
20260510033504 59 152 0.0 2.0 0.00 0.00 0.00 58
20260510033005 59 112 0.0 3.0 0.00 0.00 0.00 59
20260510032504 59 108 0.0 3.0 0.00 0.00 0.00 59
20260510032004 59 137 1.0 3.0 0.00 0.00 0.00 59
20260510031504 59 213 0.0 2.0 0.00 0.00 0.00 59
20260510031004 59 225 0.0 2.0 0.00 0.00 0.00 59
20260510030504 59 0 0.0 0.0 0.00 0.00 0.00 59
20260510030005 59 0 0.0 0.0 0.00 0.00 0.00 59
20260510025504 59 280 0.0 1.0 0.00 0.00 0.00 59
20260510025005 59 163 0.0 2.0 0.00 0.00 0.00 59
20260510024504 59 152 0.0 2.0 0.00 0.00 0.00 59
20260510024004 59 34 0.0 1.0 0.00 0.00 0.00 59
20260510023504 59 360 0.0 2.0 0.00 0.00 0.00 59
20260510023004 59 180 0.0 2.0 0.00 0.00 0.00 60
20260510022505 59 0 0.0 0.0 0.00 0.00 0.00 59
20260510022004 59 0 0.0 0.0 0.00 0.00 0.00 58
20260510021505 59 0 0.0 2.0 0.00 0.00 0.00 58
20260510021004 59 360 0.0 2.0 0.00 0.00 0.00 58
20260510020504 59 360 0.0 2.0 0.00 0.00 0.00 58
20260510020005 59 357 0.0 2.0 0.00 0.00 0.00 58
20260510015504 59 348 0.0 2.0 0.00 0.00 0.00 57
20260510015004 59 180 0.0 1.0 0.00 0.00 0.00 57
20260510014504 59 360 0.0 1.0 0.00 0.00 0.00 57
20260510014004 59 29 0.0 2.0 0.00 0.00 0.00 57
20260510013504 59 29 0.0 2.0 0.00 0.00 0.00 56
20260510013004 59 261 1.0 2.0 0.00 0.00 0.00 56
20260510012505 59 360 1.0 2.0 0.00 0.00 0.00 56
20260510012004 59 360 0.0 1.0 0.00 0.00 0.00 57
20260510011504 59 202 0.0 1.0 0.00 0.00 0.00 57
20260510011004 59 202 0.0 1.0 0.00 0.00 0.00 57
20260510010504 59 202 0.0 2.0 0.00 0.00 0.00 56
20260510010005 59 202 0.0 2.0 0.00 0.00 0.00 56
20260510005504 59 202 0.0 2.0 0.00 0.00 0.00 56
20260510005004 59 0 0.0 0.0 0.00 0.00 0.00 56
20260510004504 59 225 0.0 1.0 0.00 0.00 0.00 56
20260510004004 59 195 0.0 2.0 0.00 0.00 0.00 55
20260510003504 59 197 0.0 2.0 0.00 0.00 0.00 55
20260510003005 59 197 0.0 2.0 0.00 0.00 0.00 55
20260510002504 59 190 0.0 2.0 0.00 0.00 0.00 55
20260510002004 59 0 0.0 0.0 0.00 0.00 0.00 53
20260510001504 59 0 0.0 0.0 0.00 0.00 0.00 53
20260510001004 60 0 0.0 0.0 0.00 0.00 0.00 53
20260510000504 60 162 0.0 1.0 0.00 0.00 0.00 52
20260510000004 60 162 0.0 1.0 0.00 0.00 0.00 52
20260509235504 60 189 0.0 2.0 0.00 0.00 0.00 51
20260509235004 60 199 0.0 2.0 0.00 0.00 0.00 51
20260509234504 60 202 0.0 2.0 0.00 0.00 0.00 51
20260509234004 60 0 0.0 0.0 0.00 0.00 0.00 50
20260509233504 60 0 0.0 0.0 0.00 0.00 0.00 49
20260509233004 61 0 0.0 0.0 0.00 0.00 0.00 48
20260509232504 61 197 0.0 2.0 0.00 0.00 0.00 48
20260509232004 61 202 0.0 2.0 0.00 0.00 0.00 48
20260509231504 61 200 0.0 2.0 0.00 0.00 0.00 47
20260509231004 62 200 0.0 2.0 0.00 0.00 0.00 46
20260509230504 63 201 1.0 2.0 0.00 0.00 0.00 45
20260509230004 63 199 1.0 2.0 0.00 0.00 0.00 45
20260509225504 63 0 0.0 0.0 0.00 0.00 0.00 43
20260509225004 63 0 0.0 0.0 0.00 0.00 0.00 42
20260509224504 64 0 0.0 0.0 0.00 0.00 0.00 43
20260509224005 64 0 0.0 0.0 0.00 0.00 0.00 42
20260509223504 64 0 0.0 0.0 0.00 0.00 0.00 42
20260509223004 64 0 0.0 0.0 0.00 0.00 0.00 41
20260509222504 64 0 0.0 0.0 0.00 0.00 0.00 41
20260509222004 64 0 0.0 0.0 0.00 0.00 0.00 41
20260509221504 64 0 0.0 0.0 0.00 0.00 0.00 41
20260509221004 64 0 0.0 0.0 0.00 0.00 0.00 41
20260509220504 64 270 0.0 1.0 0.00 0.00 0.00 41
20260509220005 64 247 0.0 1.0 0.00 0.00 0.00 41
20260509215504 64 236 0.0 1.0 0.00 0.00 0.00 41
20260509215004 64 146 0.0 1.0 0.00 0.00 0.00 41
20260509214504 64 183 0.0 1.0 0.00 0.00 0.00 40
20260509214004 64 202 0.0 1.0 0.00 0.00 0.00 40
20260509213504 64 202 0.0 1.0 0.00 0.00 0.00 40
20260509213005 64 225 0.0 1.0 0.00 0.00 0.00 40
20260509212504 64 225 0.0 1.0 0.00 0.00 0.00 40
20260509212004 64 254 0.0 1.0 0.00 0.00 0.00 38
20260509211504 64 253 0.0 1.0 0.00 0.00 0.00 38
20260509211004 65 260 0.0 1.0 0.00 0.00 0.00 38
20260509210504 65 270 0.0 1.0 0.00 0.00 0.00 37
20260509210004 65 270 0.0 1.0 0.00 0.00 0.00 37
20260509205504 65 225 0.0 1.0 0.00 0.00 0.00 37
20260509205005 65 261 0.0 1.0 0.00 0.00 0.00 36
20260509204504 65 257 0.0 2.0 0.00 0.00 0.00 36
20260509204004 66 264 0.0 2.0 0.00 0.00 0.00 35
20260509203504 66 268 0.0 2.0 0.00 0.00 0.00 35
20260509203004 66 267 0.0 2.0 0.00 0.00 0.00 34
20260509202504 67 270 0.0 1.0 0.00 0.00 0.00 33
20260509202004 67 0 0.0 0.0 0.00 0.00 0.00 31
20260509201504 67 0 0.0 0.0 0.00 0.00 0.00 31
20260509201004 68 0 0.0 0.0 0.00 0.00 0.00 30
20260509200504 68 0 0.0 0.0 0.00 0.00 0.00 29
20260509200004 68 270 0.0 1.0 0.00 0.00 0.00 29
20260509195504 68 270 0.0 1.0 0.00 0.00 0.00 29
20260509195004 68 270 0.0 2.0 0.00 0.00 0.00 28
20260509194504 69 278 0.0 2.0 0.00 0.00 0.00 28
20260509194004 69 276 0.0 2.0 0.00 0.00 0.00 27
20260509193504 69 261 0.0 2.0 0.00 0.00 0.00 26
20260509193004 70 234 0.0 2.0 0.00 0.00 0.00 25
20260509192504 70 243 0.0 2.0 0.00 0.00 0.00 25
20260509192004 70 231 0.0 2.0 0.00 0.00 0.00 25
20260509191504 70 217 0.0 2.0 0.00 0.00 0.00 24
20260509191004 71 247 0.0 1.0 0.00 0.00 0.00 23
20260509190504 71 257 0.0 1.0 0.00 0.00 0.00 22
20260509190004 71 229 0.0 2.0 0.00 0.00 0.00 22
20260509185504 72 248 0.0 3.0 0.00 0.00 0.00 21
20260509185004 72 285 0.0 3.0 0.00 0.00 0.00 20
20260509184504 72 278 1.0 3.0 0.00 0.00 0.00 20
20260509184004 73 256 0.0 2.0 0.00 0.00 0.00 19
20260509183504 74 245 0.0 2.0 0.00 0.00 0.00 18
20260509183004 74 225 0.0 3.0 0.00 0.00 0.00 17
20260509182504 75 200 0.0 3.0 0.00 0.00 0.00 16
20260509182004 76 188 0.0 3.0 0.00 0.00 0.00 15
20260509181504 77 252 0.0 4.0 0.00 0.00 0.00 14
20260509181004 78 245 0.0 4.0 0.00 0.00 0.00 13
20260509180504 78 207 0.0 2.0 0.00 0.00 0.00 13
20260509180004 78 195 0.0 3.0 0.00 0.00 0.00 13
20260509175504 79 203 0.0 3.0 0.00 0.00 0.00 12
20260509175004 79 239 1.0 3.0 0.00 0.00 0.00 11
20260509174504 80 237 1.0 3.0 0.00 0.00 0.00 11
20260509174004 80 245 0.0 4.0 0.00 0.00 0.00 11
20260509173504 80 271 1.0 4.0 0.00 0.00 0.00 11
20260509173004 80 228 0.0 3.0 0.00 0.00 0.00 12
20260509172504 79 180 0.0 4.0 0.00 0.00 0.00 12
20260509172004 79 205 1.0 4.0 0.00 0.00 0.00 12
20260509171504 79 65 1.0 3.0 0.00 0.00 0.00 11
20260509171004 80 49 0.0 3.0 0.00 0.00 0.00 10
20260509170504 80 34 1.0 3.0 0.00 0.00 0.00 10
20260509170004 80 335 1.0 3.0 0.00 0.00 0.00 10
20260509165504 81 313 1.0 4.0 0.00 0.00 0.00 10
20260509165004 81 284 0.0 4.0 0.00 0.00 0.00 10
20260509164504 81 274 0.0 2.0 0.00 0.00 0.00 10
20260509164004 81 276 0.0 2.0 0.00 0.00 0.00 10
20260509163504 81 286 0.0 2.0 0.00 0.00 0.00 10
20260509163004 82 289 0.0 2.0 0.00 0.00 0.00 10
20260509162504 83 254 0.0 3.0 0.00 0.00 0.00 10
20260509162004 83 259 0.0 3.0 0.00 0.00 0.00 10
20260509161504 83 276 1.0 2.0 0.00 0.00 0.00 10
20260509161004 84 244 1.0 2.0 0.00 0.00 0.00 10
20260509160504 84 243 0.0 3.0 0.00 0.00 0.00 10
20260509160004 84 243 0.0 3.0 0.00 0.00 0.00 10
20260509155504 84 264 1.0 4.0 0.00 0.00 0.00 10
20260509155004 84 251 0.0 4.0 0.00 0.00 0.00 10
20260509154504 84 208 0.0 4.0 0.00 0.00 0.00 10
20260509154004 84 112 0.0 4.0 0.00 0.00 0.00 10
20260509153504 83 321 0.0 4.0 0.00 0.00 0.00 10
20260509153004 83 277 2.0 4.0 0.00 0.00 0.00 10
20260509152504 84 230 0.0 4.0 0.00 0.00 0.00 10
20260509152004 83 300 1.0 5.0 0.00 0.00 0.00 10
20260509151504 83 281 2.0 5.0 0.00 0.00 0.00 10
20260509151004 84 218 0.0 3.0 0.00 0.00 0.00 10
20260509150504 85 245 0.0 3.0 0.00 0.00 0.00 10
20260509150004 85 222 0.0 3.0 0.00 0.00 0.00 10
20260509145504 85 236 1.0 3.0 0.00 0.00 0.00 10
20260509145004 85 272 0.0 3.0 0.00 0.00 0.00 10
20260509144504 85 237 1.0 3.0 0.00 0.00 0.00 10
20260509144004 85 141 0.0 2.0 0.00 0.00 0.00 10
20260509143504 84 172 0.0 4.0 0.00 0.00 0.00 10
20260509143004 84 243 1.0 4.0 0.00 0.00 0.00 10
20260509142504 84 295 0.0 4.0 0.00 0.00 0.00 10
20260509142004 85 269 2.0 4.0 0.00 0.00 0.00 10
20260509141504 85 262 0.0 3.0 0.00 0.00 0.00 10
20260509141004 85 348 0.0 2.0 0.00 0.00 0.00 10
20260509140504 85 10 0.0 2.0 0.00 0.00 0.00 10
20260509140005 85 358 0.0 2.0 0.00 0.00 0.00 10
20260509135504 84 331 0.0 3.0 0.00 0.00 0.00 10
20260509135004 84 332 0.0 3.0 0.00 0.00 0.00 10
20260509134504 84 298 1.0 3.0 0.00 0.00 0.00 10
20260509134004 84 263 2.0 3.0 0.00 0.00 0.00 10
20260509133504 84 273 0.0 3.0 0.00 0.00 0.00 10
20260509133004 85 252 0.0 3.0 0.00 0.00 0.00 10
20260509132504 85 231 0.0 2.0 0.00 0.00 0.00 10
20260509132004 84 258 0.0 2.0 0.00 0.00 0.00 10
20260509131504 84 234 0.0 2.0 0.00 0.00 0.00 10
20260509131004 84 226 0.0 2.0 0.00 0.00 0.00 10
20260509130504 83 253 0.0 2.0 0.00 0.00 0.00 10
20260509130004 83 286 0.0 2.0 0.00 0.00 0.00 10
20260509125504 82 243 0.0 2.0 0.00 0.00 0.00 10
20260509125004 82 344 0.0 3.0 0.00 0.00 0.00 10
20260509124504 82 300 1.0 3.0 0.00 0.00 0.00 10
20260509124004 82 272 0.0 2.0 0.00 0.00 0.00 10
20260509123504 82 231 1.0 2.0 0.00 0.00 0.00 10
20260509123004 81 215 0.0 3.0 0.00 0.00 0.00 11
20260509122504 81 233 0.0 3.0 0.00 0.00 0.00 10
20260509122004 81 298 0.0 4.0 0.00 0.00 0.00 11
20260509121504 80 301 0.0 4.0 0.00 0.00 0.00 13
20260509121004 79 195 2.0 4.0 0.00 0.00 0.00 13
20260509120504 78 227 0.0 5.0 0.00 0.00 0.00 15
20260509120004 78 286 0.0 5.0 0.00 0.00 0.00 15
20260509115504 79 274 1.0 4.0 0.00 0.00 0.00 12
20260509115004 79 237 2.0 4.0 0.00 0.00 0.00 13
20260509114504 79 187 0.0 2.0 0.00 0.00 0.00 13
20260509114004 79 254 0.0 3.0 0.00 0.00 0.00 13
20260509113504 79 280 0.0 3.0 0.00 0.00 0.00 11
20260509113004 80 266 1.0 4.0 0.00 0.00 0.00 13
20260509112504 80 248 0.0 4.0 0.00 0.00 0.00 15
20260509112004 80 253 1.0 3.0 0.00 0.00 0.00 14
20260509111504 80 69 0.0 2.0 0.00 0.00 0.00 16
20260509111004 80 53 0.0 2.0 0.00 0.00 0.00 16
20260509110504 79 44 0.0 2.0 0.00 0.00 0.00 17
20260509110004 79 286 0.0 2.0 0.00 0.00 0.00 17
20260509105504 79 305 0.0 2.0 0.00 0.00 0.00 16
20260509105004 79 309 0.0 2.0 0.00 0.00 0.00 17
20260509104504 78 324 0.0 3.0 0.00 0.00 0.00 19
20260509104004 78 262 0.0 3.0 0.00 0.00 0.00 17
20260509103504 78 277 2.0 3.0 0.00 0.00 0.00 14
20260509103004 78 335 0.0 2.0 0.00 0.00 0.00 15
20260509102504 78 295 0.0 2.0 0.00 0.00 0.00 16
20260509102004 78 317 1.0 2.0 0.00 0.00 0.00 15
20260509101504 77 316 0.0 2.0 0.00 0.00 0.00 20
20260509101004 76 313 0.0 2.0 0.00 0.00 0.00 20
20260509100504 75 304 0.0 4.0 0.00 0.00 0.00 22
20260509100005 75 271 0.0 4.0 0.00 0.00 0.00 22
20260509095504 75 258 2.0 4.0 0.00 0.00 0.00 22
20260509095004 76 45 0.0 2.0 0.00 0.00 0.00 27
20260509094504 75 13 0.0 2.0 0.00 0.00 0.00 26
20260509094004 75 258 1.0 2.0 0.00 0.00 0.00 27
20260509093504 75 231 0.0 2.0 0.00 0.00 0.00 28
20260509093004 74 244 0.0 2.0 0.00 0.00 0.00 30
20260509092504 74 239 0.0 2.0 0.00 0.00 0.00 30
20260509092004 74 268 0.0 2.0 0.00 0.00 0.00 33
20260509091504 73 302 0.0 2.0 0.00 0.00 0.00 34